EZY56T EGKK-ELLX

Flight info

Callsign EZY56T
Flight time 0h 50m
Altitude 33000
Route ODVIK Y311 DVR UL9 KONAN UL607 REMBA
Aircraft A320/M-SDE3FGHIRWY/LB1

Departure

Time 2026-05-04 11:57
Airport London Gatwick Airport (EGKK)

Arrival

Time 2026-05-04 12:47
Airport Luxembourg-Findel International Airport (ELLX)
Time Latitude Longitude Altitude Speed Heading
2026-05-04 11:24 51.16184 -0.18033 209 ft 0 kts 78°
2026-05-04 11:39 51.16182 -0.18051 221 ft 2 kts 78°
2026-05-04 11:40 51.16178 -0.18197 217 ft 2 kts 171°
2026-05-04 11:41 51.16190 -0.18202 221 ft 1 kts 169°
2026-05-04 11:41 51.16191 -0.18202 221 ft 0 kts 169°
2026-05-04 11:43 51.16181 -0.18199 221 ft 6 kts 168°
2026-05-04 11:43 51.16143 -0.18184 219 ft 5 kts 166°
2026-05-04 11:43 51.16111 -0.18172 211 ft 4 kts 167°
2026-05-04 11:44 51.16087 -0.18163 209 ft 3 kts 167°
2026-05-04 11:44 51.16036 -0.18148 211 ft 15 kts 169°
2026-05-04 11:44 51.15926 -0.18109 214 ft 16 kts 167°
2026-05-04 11:44 51.15825 -0.18076 209 ft 16 kts 168°
2026-05-04 11:45 51.15722 -0.18041 213 ft 12 kts 172°
2026-05-04 11:45 51.15678 -0.18115 210 ft 10 kts 257°
2026-05-04 11:45 51.15665 -0.18211 215 ft 8 kts 258°
2026-05-04 11:45 51.15651 -0.18310 213 ft 9 kts 258°
2026-05-04 11:46 51.15612 -0.18355 209 ft 7 kts 174°
2026-05-04 11:46 51.15544 -0.18333 209 ft 17 kts 168°
2026-05-04 11:46 51.15414 -0.18287 209 ft 20 kts 168°
2026-05-04 11:46 51.15280 -0.18240 212 ft 20 kts 167°
2026-05-04 11:47 51.15191 -0.18255 215 ft 11 kts 242°
2026-05-04 11:47 51.15176 -0.18402 214 ft 16 kts 258°
2026-05-04 11:47 51.15153 -0.18570 213 ft 15 kts 257°
2026-05-04 11:47 51.15132 -0.18720 209 ft 13 kts 257°
2026-05-04 11:48 51.15113 -0.18859 219 ft 14 kts 258°
2026-05-04 11:48 51.15088 -0.19049 216 ft 21 kts 258°
2026-05-04 11:48 51.15053 -0.19295 213 ft 24 kts 258°
2026-05-04 11:48 51.15016 -0.19557 212 ft 25 kts 256°
2026-05-04 11:49 51.14978 -0.19834 212 ft 26 kts 257°
2026-05-04 11:49 51.14943 -0.20095 209 ft 24 kts 259°
2026-05-04 11:49 51.14906 -0.20361 209 ft 25 kts 258°
2026-05-04 11:49 51.14867 -0.20642 216 ft 27 kts 256°
2026-05-04 11:50 51.14845 -0.20803 209 ft 0 kts 258°
2026-05-04 11:50 51.14843 -0.20821 209 ft 9 kts 258°
2026-05-04 11:50 51.14827 -0.20941 220 ft 11 kts 257°
2026-05-04 11:51 51.14810 -0.21051 217 ft 10 kts 256°
2026-05-04 11:51 51.14793 -0.21151 214 ft 9 kts 250°
2026-05-04 11:51 51.14776 -0.21238 209 ft 8 kts 255°
2026-05-04 11:51 51.14760 -0.21349 209 ft 14 kts 256°
2026-05-04 11:52 51.14688 -0.21393 213 ft 12 kts 159°
2026-05-04 11:52 51.14625 -0.21331 213 ft 10 kts 163°
2026-05-04 11:52 51.14615 -0.21327 211 ft 0 kts 166°
2026-05-04 11:55 51.14522 -0.21142 209 ft 0 kts 78°
2026-05-04 11:56 51.14527 -0.21108 217 ft 15 kts 78°
2026-05-04 11:56 51.14605 -0.20549 213 ft 87 kts 77°
2026-05-04 11:56 51.14780 -0.19294 211 ft 143 kts 78°
2026-05-04 11:57 51.15008 -0.17546 463 ft 167 kts 77°
2026-05-04 11:57 51.15249 -0.15727 1237 ft 168 kts 77°
2026-05-04 11:57 51.15412 -0.14524 1719 ft 171 kts 77°
2026-05-04 11:57 51.15691 -0.12518 1952 ft 197 kts 77°
2026-05-04 11:58 51.16005 -0.10262 2261 ft 221 kts 77°
2026-05-04 11:58 51.16355 -0.07748 2653 ft 245 kts 77°
2026-05-04 11:58 51.16733 -0.05012 3337 ft 257 kts 78°
2026-05-04 11:58 51.16877 -0.02144 4180 ft 263 kts 91°
2026-05-04 11:59 51.16827 0.00800 5059 ft 268 kts 92°
2026-05-04 11:59 51.16772 0.03783 5925 ft 273 kts 92°
2026-05-04 11:59 51.16713 0.06823 6752 ft 277 kts 92°
2026-05-04 11:59 51.16652 0.09921 7591 ft 281 kts 92°
2026-05-04 12:00 51.16593 0.13064 8429 ft 285 kts 92°
2026-05-04 12:00 51.16539 0.16240 9212 ft 289 kts 92°
2026-05-04 12:00 51.16523 0.19464 10027 ft 293 kts 91°
2026-05-04 12:00 51.16533 0.22716 10770 ft 296 kts 90°
2026-05-04 12:01 51.16548 0.26008 11525 ft 300 kts 91°
2026-05-04 12:01 51.16566 0.29363 12295 ft 303 kts 90°
2026-05-04 12:02 51.16735 0.52130 15254 ft 365 kts 90°
2026-05-04 12:03 51.16769 0.56187 15895 ft 368 kts 90°
2026-05-04 12:03 51.16805 0.60280 16546 ft 371 kts 90°
2026-05-04 12:03 51.16842 0.64403 17170 ft 374 kts 90°
2026-05-04 12:03 51.16881 0.68559 17803 ft 377 kts 90°
2026-05-04 12:04 51.16921 0.72754 18412 ft 380 kts 90°
2026-05-04 12:04 51.16962 0.76990 18931 ft 384 kts 90°
2026-05-04 12:04 51.17006 0.81265 19477 ft 388 kts 90°
2026-05-04 12:04 51.17050 0.85580 19984 ft 392 kts 90°
2026-05-04 12:05 51.17096 0.89946 20496 ft 396 kts 90°
2026-05-04 12:05 51.17142 0.94360 20999 ft 400 kts 90°
2026-05-04 12:05 51.17188 0.98818 21511 ft 404 kts 90°
2026-05-04 12:05 51.17233 1.03310 22021 ft 408 kts 90°
2026-05-04 12:06 51.17279 1.07855 22507 ft 412 kts 90°
2026-05-04 12:06 51.17325 1.12448 22987 ft 416 kts 90°
2026-05-04 12:06 51.17401 1.17074 23457 ft 420 kts 90°
2026-05-04 12:06 51.17257 1.21725 23871 ft 422 kts 97°
2026-05-04 12:07 51.16960 1.26379 24275 ft 424 kts 98°
2026-05-04 12:07 51.16637 1.31062 24688 ft 426 kts 98°
2026-05-04 12:07 51.16302 1.35752 25101 ft 428 kts 99°
2026-05-04 12:07 51.15994 1.40480 25498 ft 430 kts 97°
2026-05-04 12:08 51.15741 1.45234 25885 ft 432 kts 97°
2026-05-04 12:08 51.15526 1.49961 26260 ft 434 kts 96°
2026-05-04 12:08 51.15321 1.54759 26636 ft 436 kts 96°
2026-05-04 12:08 51.15113 1.59584 27006 ft 437 kts 97°
2026-05-04 12:09 51.14893 1.64421 27377 ft 439 kts 97°
2026-05-04 12:09 51.14662 1.69271 27738 ft 440 kts 97°
2026-05-04 12:09 51.14419 1.74151 28088 ft 442 kts 98°
2026-05-04 12:09 51.14169 1.79039 28437 ft 444 kts 98°
2026-05-04 12:10 51.13916 1.83943 28768 ft 445 kts 98°
2026-05-04 12:10 51.13661 1.88867 29091 ft 447 kts 98°
2026-05-04 12:10 51.13403 1.93805 29407 ft 449 kts 98°
2026-05-04 12:10 51.13141 1.98786 29713 ft 450 kts 98°
2026-05-04 12:11 51.12879 2.03755 30009 ft 452 kts 99°
2026-05-04 12:11 51.12614 2.08744 30272 ft 453 kts 99°
2026-05-04 12:11 51.12349 2.13754 30491 ft 455 kts 99°
2026-05-04 12:11 51.12078 2.18779 30692 ft 457 kts 99°
2026-05-04 12:12 51.11803 2.23828 30899 ft 459 kts 99°
2026-05-04 12:12 51.11523 2.28896 31102 ft 460 kts 99°
2026-05-04 12:12 51.11242 2.33971 31376 ft 460 kts 99°
2026-05-04 12:12 51.10960 2.39046 31653 ft 460 kts 99°
2026-05-04 12:13 51.10678 2.44110 31928 ft 460 kts 100°
2026-05-04 12:14 51.07065 2.78536 33024 ft 441 kts 112°
2026-05-04 12:15 51.05364 2.87887 33029 ft 441 kts 112°
2026-05-04 12:15 51.03652 2.97248 33019 ft 441 kts 112°
2026-05-04 12:16 51.01937 3.06606 33013 ft 441 kts 112°
2026-05-04 12:16 51.00215 3.15966 33005 ft 441 kts 112°
2026-05-04 12:17 50.98482 3.25308 32985 ft 441 kts 112°
2026-05-04 12:17 50.96735 3.34645 32982 ft 441 kts 112°
2026-05-04 12:18 50.94983 3.43972 32976 ft 441 kts 112°
2026-05-04 12:18 50.93232 3.53305 32974 ft 442 kts 112°
2026-05-04 12:19 50.91479 3.62580 32979 ft 442 kts 112°
2026-05-04 12:19 50.89694 3.71905 32980 ft 442 kts 113°
2026-05-04 12:20 50.87886 3.81226 32980 ft 443 kts 113°
2026-05-04 12:20 50.86075 3.90543 32984 ft 443 kts 113°
2026-05-04 12:21 50.84260 3.99872 32984 ft 444 kts 113°
2026-05-04 12:21 50.82435 4.09199 32983 ft 444 kts 113°
2026-05-04 12:22 50.80598 4.18533 32983 ft 445 kts 113°
2026-05-04 12:22 50.78753 4.27866 32985 ft 445 kts 113°
2026-05-04 12:23 50.76901 4.37186 32895 ft 446 kts 113°
2026-05-04 12:23 50.75966 4.41878 32621 ft 446 kts 113°
2026-05-04 12:23 50.75035 4.46541 32355 ft 445 kts 113°
2026-05-04 12:24 50.74100 4.51193 32080 ft 442 kts 113°
2026-05-04 12:24 50.73175 4.55789 31551 ft 438 kts 113°
2026-05-04 12:24 50.72255 4.60353 30981 ft 434 kts 113°
2026-05-04 12:24 50.71356 4.64883 30432 ft 431 kts 112°
2026-05-04 12:25 50.70493 4.69330 29863 ft 428 kts 112°
2026-05-04 12:25 50.69639 4.73793 29302 ft 423 kts 112°
2026-05-04 12:25 50.68793 4.78213 28764 ft 419 kts 112°
2026-05-04 12:25 50.67953 4.82577 28246 ft 415 kts 112°
2026-05-04 12:26 50.67074 4.86896 27723 ft 408 kts 116°
2026-05-04 12:26 50.65850 4.90856 27224 ft 398 kts 126°
2026-05-04 12:26 50.64254 4.94336 26748 ft 388 kts 136°
2026-05-04 12:26 50.62391 4.97348 26284 ft 381 kts 140°
2026-05-04 12:27 50.60505 5.00256 25831 ft 378 kts 140°
2026-05-04 12:27 50.58636 5.03147 25394 ft 375 kts 140°
2026-05-04 12:27 50.56793 5.06005 24963 ft 371 kts 140°
2026-05-04 12:27 50.54964 5.08847 24535 ft 368 kts 140°
2026-05-04 12:28 50.53140 5.11675 24110 ft 366 kts 140°
2026-05-04 12:28 50.51341 5.14455 23692 ft 363 kts 140°
2026-05-04 12:28 50.49538 5.17233 23217 ft 360 kts 140°
2026-05-04 12:28 50.47762 5.19966 22795 ft 356 kts 140°
2026-05-04 12:29 50.46011 5.22657 22378 ft 352 kts 139°
2026-05-04 12:29 50.44285 5.25306 21965 ft 349 kts 139°
2026-05-04 12:29 50.42556 5.27956 21552 ft 345 kts 139°
2026-05-04 12:29 50.40850 5.30570 21139 ft 342 kts 139°
2026-05-04 12:30 50.39153 5.33170 20720 ft 340 kts 139°
2026-05-04 12:30 50.37464 5.35753 20302 ft 338 kts 139°
2026-05-04 12:30 50.35787 5.38318 19879 ft 336 kts 139°
2026-05-04 12:30 50.34118 5.40866 19453 ft 335 kts 139°
2026-05-04 12:31 50.32537 5.43606 18784 ft 344 kts 129°
2026-05-04 12:31 50.31147 5.46621 18285 ft 346 kts 128°
2026-05-04 12:31 50.29759 5.49684 17809 ft 344 kts 128°
2026-05-04 12:31 50.28376 5.52725 17351 ft 343 kts 128°
2026-05-04 12:32 50.26995 5.55750 16902 ft 341 kts 128°
2026-05-04 12:32 50.24245 5.61737 16030 ft 337 kts 128°
2026-05-04 12:32 50.22873 5.64696 15646 ft 342 kts 128°
2026-05-04 12:33 50.21475 5.67688 15293 ft 337 kts 128°
2026-05-04 12:33 50.20096 5.70628 15045 ft 333 kts 128°
2026-05-04 12:33 50.18731 5.73533 15001 ft 332 kts 128°
2026-05-04 12:33 50.17369 5.76442 15003 ft 333 kts 128°
2026-05-04 12:34 50.16003 5.79366 15010 ft 333 kts 128°
2026-05-04 12:34 50.14631 5.82306 14996 ft 334 kts 128°
2026-05-04 12:34 50.13266 5.85235 15001 ft 333 kts 128°
2026-05-04 12:34 50.11911 5.88150 15003 ft 332 kts 128°
2026-05-04 12:35 50.10566 5.91055 14688 ft 329 kts 128°
2026-05-04 12:35 50.09230 5.93943 14266 ft 327 kts 128°
2026-05-04 12:35 50.07898 5.96809 13853 ft 326 kts 128°
2026-05-04 12:35 50.06572 5.99649 13419 ft 323 kts 128°
2026-05-04 12:36 50.05254 6.02471 12979 ft 321 kts 128°
2026-05-04 12:36 50.03947 6.05273 12535 ft 319 kts 128°
2026-05-04 12:36 50.02650 6.08060 12134 ft 317 kts 128°
2026-05-04 12:36 50.01362 6.10826 11768 ft 315 kts 128°
2026-05-04 12:37 50.00082 6.13569 11436 ft 312 kts 128°
2026-05-04 12:37 49.98812 6.16299 11083 ft 311 kts 128°
2026-05-04 12:37 49.97550 6.19020 10736 ft 309 kts 128°
2026-05-04 12:37 49.96300 6.21733 10406 ft 308 kts 128°
2026-05-04 12:38 49.95081 6.24400 10277 ft 297 kts 128°
2026-05-04 12:38 49.93913 6.26971 10153 ft 286 kts 128°
2026-05-04 12:38 49.92787 6.29476 9841 ft 279 kts 128°
2026-05-04 12:38 49.91679 6.31967 9440 ft 279 kts 128°
2026-05-04 12:39 49.90603 6.34415 9087 ft 277 kts 128°
2026-05-04 12:39 49.89531 6.36888 8714 ft 276 kts 128°
2026-05-04 12:39 49.88477 6.39361 8356 ft 274 kts 128°
2026-05-04 12:39 49.87432 6.41821 7980 ft 272 kts 128°
2026-05-04 12:40 49.86400 6.44268 7583 ft 271 kts 128°
2026-05-04 12:40 49.85374 6.46707 7222 ft 270 kts 129°
2026-05-04 12:40 49.84359 6.49152 6860 ft 269 kts 128°
2026-05-04 12:40 49.83318 6.51538 6480 ft 263 kts 138°
2026-05-04 12:41 49.81872 6.53081 6095 ft 248 kts 167°
2026-05-04 12:41 49.80253 6.53212 5947 ft 223 kts 197°
2026-05-04 12:41 49.78922 6.52250 5674 ft 206 kts 211°
2026-05-04 12:41 49.77713 6.51057 5301 ft 206 kts 213°
2026-05-04 12:42 49.76525 6.49850 4989 ft 203 kts 213°
2026-05-04 12:42 49.75342 6.48667 4501 ft 203 kts 213°
2026-05-04 12:42 49.74150 6.47470 3934 ft 206 kts 213°
2026-05-04 12:42 49.72948 6.46253 3409 ft 208 kts 213°
2026-05-04 12:43 49.71753 6.45015 3035 ft 200 kts 216°
2026-05-04 12:43 49.70842 6.43500 3004 ft 190 kts 232°
2026-05-04 12:43 49.70082 6.41841 2890 ft 189 kts 233°
2026-05-04 12:43 49.69335 6.40162 2704 ft 192 kts 237°
2026-05-04 12:44 49.68668 6.38391 2655 ft 190 kts 237°
2026-05-04 12:44 49.68017 6.36687 2657 ft 177 kts 239°
2026-05-04 12:44 49.67499 6.35141 2623 ft 150 kts 243°
2026-05-04 12:44 49.67042 6.33892 2558 ft 122 kts 230°
2026-05-04 12:45 49.66513 6.32789 2288 ft 140 kts 236°
2026-05-04 12:45 49.66162 6.31352 2202 ft 146 kts 248°
2026-05-04 12:45 49.65883 6.29807 2147 ft 151 kts 243°
2026-05-04 12:45 49.65485 6.28303 2177 ft 151 kts 236°
2026-05-04 12:46 49.65131 6.27364 2189 ft 151 kts 232°
2026-05-04 12:46 49.64532 6.25953 1959 ft 166 kts 231°
2026-05-04 12:46 49.63879 6.24505 1538 ft 163 kts 237°
2026-05-04 12:46 49.63346 6.23004 1214 ft 150 kts 241°
2026-05-04 12:47 49.62908 6.21853 1199 ft 99 kts 240°
2026-05-04 12:47 49.62660 6.21150 1198 ft 57 kts 248°
2026-05-04 12:47 49.62658 6.20791 1199 ft 18 kts 298°
2026-05-04 12:47 49.62664 6.20778 1199 ft 0 kts 303°
2026-05-04 12:48 49.62679 6.20746 1200 ft 0 kts 309°